Location: Newark
(40.9833°N, 0.0333°W)
Time: 00:32:43
(UTC+00:00)

deb Explorer IX - Pass Details

Date: 29 October 2020
Orbit: 537 x 1105 km, 38.8° (Epoch: 02 December)

Event Time Altitude Azimuth Distance (km) Brightness Sun altitude
Rises 11:54:49 0° 271° (W) 3,887 ? 35.3°
Reaches altitude 10° 11:59:33 10° 245° (WSW) 2,956 ? 35.2°
Maximum altitude 12:02:16 12° 223° (SW) 2,777 ? 35.2°
Drops below altitude 10° 12:04:58 10° 200° (SSW) 2,935 ? 35.1°
Sets 12:09:39 0° 173° (S) 3,828 ? 35.0°
